| time (UTC) | temp F | wind direction | speed MPH | gust MPH | rain 1hr in | rain 24hr in | rain mn in | humidity % | barometer mb |
| 20260905223007 | 92 | 90 | 2.0 | 8.0 | 0.00 | 0.00 | 0.00 | 59 | 1012.5 |
| 20260905222509 | 92 | 205 | 2.0 | 8.0 | 0.00 | 0.00 | 0.00 | 58 | 1012.3 |
| 20260905222003 | 92 | 156 | 1.0 | 8.0 | 0.00 | 0.00 | 0.00 | 59 | 1012.3 |
| 20260905221501 | 92 | 212 | 1.0 | 8.0 | 0.00 | 0.00 | 0.00 | 59 | 1012.2 |
| 20260905221001 | 92 | 246 | 0.0 | 8.0 | 0.00 | 0.00 | 0.00 | 58 | 1012.2 |
| 20260905220505 | 92 | 216 | 0.0 | 6.0 | 0.00 | 0.00 | 0.00 | 58 | 1012.2 |
| 20260905220006 | 92 | 61 | 2.0 | 6.0 | 0.00 | 0.00 | 0.00 | 58 | 1012.1 |
| 20260905215506 | 92 | 103 | 2.0 | 8.0 | 0.00 | 0.00 | 0.00 | 57 | 1012.2 |
| 20260905215006 | 92 | 157 | 2.0 | 9.0 | 0.00 | 0.00 | 0.00 | 57 | 1012.3 |
| 20260905214503 | 92 | 183 | 2.0 | 9.0 | 0.00 | 0.00 | 0.00 | 57 | 1012.3 |
| 20260905214003 | 92 | 129 | 2.0 | 9.0 | 0.00 | 0.00 | 0.00 | 57 | 1012.4 |
| 20260905213507 | 92 | 144 | 3.0 | 9.0 | 0.00 | 0.00 | 0.00 | 57 | 1012.5 |
| 20260905213003 | 92 | 109 | 3.0 | 8.0 | 0.00 | 0.00 | 0.00 | 56 | 1012.5 |
| 20260905212504 | 92 | 94 | 1.0 | 7.0 | 0.00 | 0.00 | 0.00 | 57 | 1012.6 |
| 20260905212008 | 92 | 127 | 3.0 | 7.0 | 0.00 | 0.00 | 0.00 | 56 | 1012.6 |
| 20260905211517 | 92 | 32 | 1.0 | 11.0 | 0.00 | 0.00 | 0.00 | 57 | 1012.7 |
| 20260905211004 | 91 | 96 | 2.0 | 11.0 | 0.00 | 0.00 | 0.00 | 59 | 1012.9 |
| 20260905210504 | 92 | 108 | 3.0 | 10.0 | 0.00 | 0.00 | 0.00 | 59 | 1013.0 |
| 20260905210009 | 92 | 98 | 3.0 | 10.0 | 0.00 | 0.00 | 0.00 | 58 | 1013.2 |
| 20260905205505 | 91 | 82 | 3.0 | 10.0 | 0.00 | 0.00 | 0.00 | 58 | 1013.2 |
| 20260905205002 | 92 | 115 | 4.0 | 10.0 | 0.00 | 0.00 | 0.00 | 57 | 1013.3 |
| 20260905204506 | 92 | 81 | 2.0 | 7.0 | 0.00 | 0.00 | 0.00 | 57 | 1013.4 |
| 20260905204007 | 92 | 132 | 1.0 | 7.0 | 0.00 | 0.00 | 0.00 | 55 | 1013.6 |
| 20260905203506 | 92 | 105 | 3.0 | 7.0 | 0.00 | 0.00 | 0.00 | 54 | 1013.8 |
| 20260905203004 | 92 | 90 | 2.0 | 9.0 | 0.00 | 0.00 | 0.00 | 54 | 1013.8 |
| 20260905202505 | 92 | 65 | 2.0 | 10.0 | 0.00 | 0.00 | 0.00 | 54 | 1013.9 |
| 20260905202015 | 92 | 90 | 1.0 | 10.0 | 0.00 | 0.00 | 0.00 | 56 | 1014.0 |
| 20260905201504 | 92 | 84 | 2.0 | 8.0 | 0.00 | 0.00 | 0.00 | 55 | 1014.0 |
| 20260905201002 | 92 | 107 | 3.0 | 12.0 | 0.00 | 0.00 | 0.00 | 56 | 1014.2 |
| 20260905200511 | 91 | 107 | 3.0 | 13.0 | 0.00 | 0.00 | 0.00 | 57 | 1014.4 |
| 20260905200023 | 91 | 126 | 2.0 | 13.0 | 0.00 | 0.00 | 0.00 | 1014.7 | |
| 20260905195503 | 92 | 94 | 5.0 | 13.0 | 0.00 | 0.00 | 0.00 | 56 | 1014.7 |
| 20260905195004 | 91 | 107 | 3.0 | 11.0 | 0.00 | 0.00 | 0.00 | 56 | 1014.9 |
| 20260905194505 | 91 | 80 | 3.0 | 10.0 | 0.00 | 0.00 | 0.00 | 56 | 1014.9 |
| 20260905194002 | 92 | 59 | 0.0 | 10.0 | 0.00 | 0.00 | 0.00 | 58 | 1014.9 |
| 20260905193511 | 91 | 111 | 2.0 | 10.0 | 0.00 | 0.00 | 0.00 | 59 | 1014.9 |
| 20260905193004 | 91 | 203 | 1.0 | 8.0 | 0.00 | 0.00 | 0.00 | 60 | 1014.9 |
| 20260905192509 | 91 | 94 | 3.0 | 10.0 | 0.00 | 0.00 | 0.00 | 58 | 1015.0 |
| 20260905192007 | 91 | 130 | 3.0 | 12.0 | 0.00 | 0.00 | 0.00 | 58 | 1015.1 |
| 20260905191513 | 91 | 107 | 5.0 | 10.0 | 0.00 | 0.00 | 0.00 | 58 | 1015.0 |
| 20260905191010 | 91 | 105 | 3.0 | 8.0 | 0.00 | 0.00 | 0.00 | 59 | 1015.2 |
| 20260905190502 | 91 | 71 | 1.0 | 11.0 | 0.00 | 0.00 | 0.00 | 63 | 1015.4 |
| 20260905190012 | 90 | 134 | 4.0 | 11.0 | 0.00 | 0.00 | 0.00 | 61 | 1015.4 |
| 20260905185510 | 90 | 114 | 3.0 | 12.0 | 0.00 | 0.00 | 0.00 | 59 | 1015.5 |
| 20260905185017 | 90 | 100 | 4.0 | 13.0 | 0.00 | 0.00 | 0.00 | 60 | 1015.7 |
| 20260905184504 | 90 | 109 | 4.0 | 13.0 | 0.00 | 0.00 | 0.00 | 61 | 1015.9 |
| 20260905184003 | 90 | 292 | 4.0 | 11.0 | 0.00 | 0.00 | 0.00 | 61 | 1016.0 |
| 20260905183506 | 90 | 309 | 2.0 | 13.0 | 0.00 | 0.00 | 0.00 | 62 | 1016.1 |
| 20260905183005 | 89 | 55 | 5.0 | 13.0 | 0.00 | 0.00 | 0.00 | 63 | 1016.2 |
| 20260905182505 | 89 | 114 | 6.0 | 12.0 | 0.00 | 0.00 | 0.00 | 63 | 1016.2 |
| 20260905182009 | 90 | 128 | 3.0 | 12.0 | 0.00 | 0.00 | 0.00 | 63 | 1016.2 |
| 20260905181513 | 89 | 162 | 3.0 | 14.0 | 0.00 | 0.00 | 0.00 | 62 | 1016.3 |
| 20260905181003 | 89 | 259 | 4.0 | 17.0 | 0.00 | 0.00 | 0.00 | 63 | 1016.3 |
| 20260905180512 | 89 | 111 | 4.0 | 17.0 | 0.00 | 0.00 | 0.00 | 62 | 1016.3 |
| 20260905180008 | 89 | 76 | 1.0 | 12.0 | 0.00 | 0.00 | 0.00 | 64 | 1016.2 |
| 20260905175515 | 89 | 344 | 1.0 | 12.0 | 0.00 | 0.00 | 0.00 | 66 | 1016.1 |
| 20260905175007 | 88 | 319 | 3.0 | 10.0 | 0.00 | 0.00 | 0.00 | 65 | 1016.1 |
| 20260905174518 | 89 | 45 | 4.0 | 10.0 | 0.00 | 0.00 | 0.00 | 64 | 1016.2 |
| 20260905174013 | 89 | 94 | 2.0 | 9.0 | 0.00 | 0.00 | 0.00 | 66 | 1016.1 |
| 20260905173506 | 89 | 142 | 3.0 | 9.0 | 0.00 | 0.00 | 0.00 | 64 | 1016.1 |
| 20260905173003 | 89 | 98 | 2.0 | 13.0 | 0.00 | 0.00 | 0.00 | 64 | 1016.2 |
| 20260905172504 | 89 | 332 | 4.0 | 13.0 | 0.00 | 0.00 | 0.00 | 64 | 1016.1 |
| 20260905172009 | 89 | 352 | 1.0 | 11.0 | 0.00 | 0.00 | 0.00 | 62 | 1016.2 |
| 20260905171518 | 89 | 341 | 1.0 | 6.0 | 0.00 | 0.00 | 0.00 | 63 | 1016.2 |
| 20260905171013 | 90 | 320 | 3.0 | 5.0 | 0.00 | 0.00 | 0.00 | 62 | 1016.2 |
| 20260905170510 | 89 | 193 | 2.0 | 6.0 | 0.00 | 0.00 | 0.00 | 64 | 1016.2 |
| 20260905170016 | 90 | 323 | 3.0 | 8.0 | 0.00 | 0.00 | 0.00 | 61 | 1016.3 |
| 20260905165511 | 90 | 71 | 2.0 | 8.0 | 0.00 | 0.00 | 0.00 | 62 | 1016.2 |
| 20260905165013 | 90 | 5 | 2.0 | 5.0 | 0.00 | 0.00 | 0.00 | 61 | 1016.2 |
| 20260905164524 | 90 | 360 | 1.0 | 5.0 | 0.00 | 0.00 | 0.00 | 62 | 1016.2 |
| 20260905164006 | 90 | 339 | 2.0 | 4.0 | 0.00 | 0.00 | 0.00 | 62 | 1016.3 |
| 20260905163510 | 90 | 336 | 1.0 | 8.0 | 0.00 | 0.00 | 0.00 | 64 | 1016.2 |
| 20260905163018 | 90 | 56 | 1.0 | 8.0 | 0.00 | 0.00 | 0.00 | 64 | 1016.2 |
| 20260905162521 | 90 | 352 | 2.0 | 5.0 | 0.00 | 0.00 | 0.00 | 60 | 1016.2 |
| 20260905162007 | 90 | 352 | 2.0 | 4.0 | 0.00 | 0.00 | 0.00 | 61 | 1016.2 |
| 20260905161507 | 91 | 360 | 2.0 | 4.0 | 0.00 | 0.00 | 0.00 | 62 | 1016.2 |
| 20260905161006 | 90 | 352 | 2.0 | 4.0 | 0.00 | 0.00 | 0.00 | 62 | 1016.0 |
| 20260905160503 | 90 | 352 | 0.0 | 4.0 | 0.00 | 0.00 | 0.00 | 60 | 1015.8 |
| 20260905160030 | 89 | 340 | 1.0 | 2.0 | 0.00 | 0.00 | 0.00 | 59 | 1015.8 |
| 20260905155511 | 89 | 340 | 0.0 | 2.0 | 0.00 | 0.00 | 0.00 | 64 | 1015.8 |
| 20260905155009 | 88 | 340 | 0.0 | 2.0 | 0.00 | 0.00 | 0.00 | 62 | 1015.7 |
| 20260905154509 | 88 | 340 | 1.0 | 2.0 | 0.00 | 0.00 | 0.00 | 64 | 1015.7 |
| 20260905154012 | 88 | 344 | 1.0 | 2.0 | 0.00 | 0.00 | 0.00 | 63 | 1015.7 |
| 20260905153510 | 88 | 41 | 0.0 | 2.0 | 0.00 | 0.00 | 0.00 | 67 | 1015.7 |
| 20260905153009 | 87 | 37 | 1.0 | 2.0 | 0.00 | 0.00 | 0.00 | 65 | 1015.7 |
| 20260905152512 | 86 | 107 | 0.0 | 2.0 | 0.00 | 0.00 | 0.00 | 65 | 1015.6 |
| 20260905152009 | 86 | 107 | 0.0 | 2.0 | 0.00 | 0.00 | 0.00 | 65 | 1015.5 |
| 20260905151531 | 85 | 113 | 0.0 | 2.0 | 0.00 | 0.00 | 0.00 | 68 | 1015.5 |
| 20260905151008 | 84 | 113 | 0.0 | 2.0 | 0.00 | 0.00 | 0.00 | 67 | 1015.3 |
| 20260905150508 | 84 | 113 | 0.0 | 2.0 | 0.00 | 0.00 | 0.00 | 71 | 1015.3 |
| 20260905150011 | 84 | 113 | 0.0 | 2.0 | 0.00 | 0.00 | 0.00 | 67 | 1015.3 |
| 20260905145521 | 84 | 113 | 1.0 | 2.0 | 0.00 | 0.00 | 0.00 | 67 | 1015.3 |
| 20260905145012 | 84 | 112 | 0.0 | 2.0 | 0.00 | 0.00 | 0.00 | 70 | 1015.3 |
| 20260905144522 | 84 | 112 | 0.0 | 2.0 | 0.00 | 0.00 | 0.00 | 68 | 1015.2 |
| 20260905144009 | 84 | 111 | 1.0 | 3.0 | 0.00 | 0.00 | 0.00 | 68 | 1015.1 |
| 20260905143507 | 83 | 96 | 1.0 | 3.0 | 0.00 | 0.00 | 0.00 | 68 | 1014.9 |
| 20260905143025 | 83 | 105 | 0.0 | 3.0 | 0.00 | 0.00 | 0.00 | 69 | 1014.7 |
| 20260905142508 | 83 | 100 | 1.0 | 3.0 | 0.00 | 0.00 | 0.00 | 69 | 1014.7 |
| 20260905142014 | 84 | 115 | 1.0 | 2.0 | 0.00 | 0.00 | 0.00 | 70 | 1014.7 |
| 20260905141519 | 83 | 88 | 1.0 | 4.0 | 0.00 | 0.00 | 0.00 | 71 | 1014.7 |
| 20260905141015 | 82 | 242 | 0.0 | 4.0 | 0.00 | 0.00 | 0.00 | 71 | 1014.4 |
| 20260905140517 | 82 | 252 | 1.0 | 4.0 | 0.00 | 0.00 | 0.00 | 72 | 1014.3 |
| 20260905140012 | 81 | 223 | 0.0 | 2.0 | 0.00 | 0.00 | 0.00 | 73 | 1014.1 |
| 20260905135514 | 81 | 105 | 0.0 | 2.0 | 0.00 | 0.00 | 0.00 | 74 | 1014.3 |
| 20260905135010 | 81 | 96 | 0.0 | 6.0 | 0.00 | 0.00 | 0.00 | 74 | 1014.4 |
| 20260905134516 | 81 | 96 | 2.0 | 6.0 | 0.00 | 0.00 | 0.00 | 74 | 1014.5 |
| 20260905134011 | 80 | 96 | 2.0 | 3.0 | 0.00 | 0.00 | 0.00 | 75 | 1014.6 |
| 20260905133515 | 80 | 283 | 1.0 | 1.0 | 0.00 | 0.00 | 0.00 | 77 | 1014.7 |
| 20260905133021 | 79 | 283 | 0.0 | 0.0 | 0.00 | 0.00 | 0.00 | 80 | 1014.8 |
| 20260905132512 | 79 | 283 | 0.0 | 0.0 | 0.00 | 0.00 | 0.00 | 78 | 1014.6 |
| 20260905132017 | 78 | 283 | 0.0 | 0.0 | 0.00 | 0.00 | 0.00 | 81 | 1014.4 |
| 20260905131541 | 77 | 283 | 0.0 | 0.0 | 0.00 | 0.00 | 0.00 | 80 | 1014.2 |
| 20260905131016 | 77 | 283 | 0.0 | 0.0 | 0.00 | 0.00 | 0.00 | 80 | 1014.1 |
| 20260905130516 | 76 | 283 | 0.0 | 0.0 | 0.00 | 0.00 | 0.00 | 81 | 1014.1 |
| 20260905130027 | 76 | 283 | 0.0 | 0.0 | 0.00 | 0.00 | 0.00 | 82 | 1014.1 |
| 20260905125515 | 75 | 283 | 0.0 | 0.0 | 0.00 | 0.00 | 0.00 | 83 | 1014.0 |
| 20260905125010 | 75 | 283 | 0.0 | 0.0 | 0.00 | 0.00 | 0.00 | 83 | 1014.0 |
| 20260905124527 | 74 | 283 | 0.0 | 0.0 | 0.00 | 0.00 | 0.00 | 84 | 1014.0 |
| 20260905124007 | 74 | 283 | 0.0 | 0.0 | 0.00 | 0.00 | 0.00 | 85 | 1013.9 |
| 20260905123510 | 74 | 283 | 0.0 | 0.0 | 0.00 | 0.00 | 0.00 | 85 | 1013.8 |
| 20260905123019 | 74 | 283 | 0.0 | 0.0 | 0.00 | 0.00 | 0.00 | 84 | 1013.7 |
| 20260905122516 | 74 | 283 | 0.0 | 0.0 | 0.00 | 0.00 | 0.00 | 84 | 1013.5 |
| 20260905122012 | 74 | 283 | 0.0 | 0.0 | 0.00 | 0.00 | 0.00 | 84 | 1013.4 |
| 20260905121525 | 74 | 283 | 0.0 | 0.0 | 0.00 | 0.00 | 0.00 | 84 | 1013.4 |
| 20260905121018 | 74 | 284 | 0.0 | 0.0 | 0.00 | 0.00 | 0.00 | 84 | 1013.4 |
| 20260905120515 | 74 | 283 | 0.0 | 0.0 | 0.00 | 0.00 | 0.00 | 85 | 1013.3 |
| 20260905120018 | 74 | 283 | 0.0 | 0.0 | 0.00 | 0.00 | 0.00 | 85 | 1013.3 |
| 20260905115513 | 74 | 283 | 0.0 | 0.0 | 0.00 | 0.00 | 0.00 | 85 | 1013.2 |
| 20260905115014 | 74 | 283 | 0.0 | 0.0 | 0.00 | 0.00 | 0.00 | 86 | 1013.2 |
| 20260905114538 | 74 | 283 | 0.0 | 0.0 | 0.00 | 0.00 | 0.00 | 86 | 1013.3 |
| 20260905114015 | 74 | 283 | 0.0 | 0.0 | 0.00 | 0.00 | 0.00 | 86 | 1013.4 |
| 20260905113518 | 74 | 283 | 0.0 | 0.0 | 0.00 | 0.00 | 0.00 | 87 | 1013.4 |
| 20260905113034 | 74 | 283 | 0.0 | 0.0 | 0.00 | 0.00 | 0.00 | 87 | 1013.5 |
| 20260905112512 | 74 | 283 | 0.0 | 0.0 | 0.00 | 0.00 | 0.00 | 86 | 1013.4 |
| 20260905112002 | 74 | 283 | 0.0 | 0.0 | 0.00 | 0.00 | 0.00 | 86 | 1013.3 |
| 20260905111504 | 74 | 283 | 0.0 | 0.0 | 0.00 | 0.00 | 0.00 | 86 | 1013.1 |
| 20260905111002 | 74 | 283 | 0.0 | 0.0 | 0.00 | 0.00 | 0.00 | 87 | 1013.2 |
| 20260905110503 | 74 | 283 | 0.0 | 0.0 | 0.00 | 0.00 | 0.00 | 86 | 1013.1 |
| 20260905110003 | 74 | 283 | 0.0 | 0.0 | 0.00 | 0.00 | 0.00 | 86 | 1013.0 |
| 20260905105505 | 74 | 283 | 0.0 | 0.0 | 0.00 | 0.00 | 0.00 | 87 | 1013.1 |
| 20260905105004 | 74 | 283 | 0.0 | 0.0 | 0.00 | 0.00 | 0.00 | 86 | 1013.1 |
| 20260905104510 | 74 | 283 | 0.0 | 0.0 | 0.00 | 0.00 | 0.00 | 86 | 1013.1 |
| 20260905104002 | 74 | 283 | 0.0 | 0.0 | 0.00 | 0.00 | 0.00 | 86 | 1013.0 |
| 20260905103502 | 75 | 283 | 0.0 | 0.0 | 0.00 | 0.00 | 0.00 | 86 | 1013.1 |
| 20260905103010 | 75 | 283 | 0.0 | 0.0 | 0.00 | 0.00 | 0.00 | 86 | 1012.9 |
| 20260905102503 | 75 | 283 | 0.0 | 0.0 | 0.00 | 0.00 | 0.00 | 86 | 1012.9 |
| 20260905102006 | 75 | 283 | 0.0 | 0.0 | 0.00 | 0.00 | 0.00 | 86 | 1012.9 |
| 20260905101504 | 75 | 283 | 0.0 | 0.0 | 0.00 | 0.00 | 0.00 | 86 | 1012.8 |
| 20260905101003 | 75 | 283 | 0.0 | 0.0 | 0.00 | 0.00 | 0.00 | 86 | 1012.8 |
| 20260905100506 | 75 | 283 | 0.0 | 0.0 | 0.00 | 0.00 | 0.00 | 86 | 1012.8 |
| 20260905100010 | 75 | 283 | 0.0 | 0.0 | 0.00 | 0.00 | 0.00 | 86 | 1012.8 |
| 20260905095502 | 75 | 283 | 0.0 | 0.0 | 0.00 | 0.00 | 0.00 | 86 | 1012.8 |
| 20260905095003 | 75 | 283 | 0.0 | 0.0 | 0.00 | 0.00 | 0.00 | 86 | 1012.7 |
| 20260905094510 | 75 | 283 | 0.0 | 0.0 | 0.00 | 0.00 | 0.00 | 86 | 1012.6 |
| 20260905094004 | 75 | 283 | 0.0 | 0.0 | 0.00 | 0.00 | 0.00 | 86 | 1012.6 |
| 20260905093507 | 75 | 283 | 0.0 | 0.0 | 0.00 | 0.00 | 0.00 | 86 | 1012.5 |
| 20260905093003 | 75 | 283 | 0.0 | 0.0 | 0.00 | 0.00 | 0.00 | 85 | 1012.4 |
| 20260905092504 | 75 | 283 | 0.0 | 0.0 | 0.00 | 0.00 | 0.00 | 84 | 1012.4 |
| 20260905092001 | 75 | 283 | 0.0 | 0.0 | 0.00 | 0.00 | 0.00 | 84 | 1012.4 |
| 20260905091504 | 75 | 283 | 0.0 | 0.0 | 0.00 | 0.00 | 0.00 | 84 | 1012.4 |
| 20260905091002 | 75 | 283 | 0.0 | 0.0 | 0.00 | 0.00 | 0.00 | 84 | 1012.5 |
| 20260905090502 | 75 | 283 | 0.0 | 0.0 | 0.00 | 0.00 | 0.00 | 85 | 1012.6 |
| 20260905090004 | 75 | 283 | 0.0 | 0.0 | 0.00 | 0.00 | 0.00 | 84 | 1012.7 |
| 20260905085508 | 75 | 283 | 0.0 | 0.0 | 0.00 | 0.00 | 0.00 | 84 | 1012.7 |
| 20260905085009 | 76 | 283 | 0.0 | 0.0 | 0.00 | 0.00 | 0.00 | 84 | 1012.7 |
| 20260905084507 | 76 | 283 | 0.0 | 0.0 | 0.00 | 0.00 | 0.00 | 84 | 1012.7 |
| 20260905084004 | 76 | 283 | 0.0 | 0.0 | 0.00 | 0.00 | 0.00 | 84 | 1012.8 |
| 20260905083503 | 76 | 283 | 0.0 | 0.0 | 0.00 | 0.00 | 0.00 | 84 | 1012.9 |
| 20260905083005 | 76 | 283 | 0.0 | 0.0 | 0.00 | 0.00 | 0.00 | 84 | 1012.9 |
| 20260905082505 | 76 | 283 | 0.0 | 0.0 | 0.00 | 0.00 | 0.00 | 84 | 1012.9 |
| 20260905082004 | 76 | 283 | 0.0 | 0.0 | 0.00 | 0.00 | 0.00 | 84 | 1012.9 |
| 20260905081508 | 76 | 283 | 0.0 | 0.0 | 0.00 | 0.00 | 0.00 | 83 | 1012.9 |
| 20260905081004 | 76 | 283 | 0.0 | 0.0 | 0.00 | 0.00 | 0.00 | 83 | 1013.0 |
| 20260905080505 | 77 | 283 | 0.0 | 0.0 | 0.00 | 0.00 | 0.00 | 83 | 1013.0 |
| 20260905080008 | 77 | 283 | 0.0 | 0.0 | 0.00 | 0.00 | 0.00 | 83 | 1013.0 |
| 20260905075505 | 77 | 283 | 0.0 | 0.0 | 0.00 | 0.00 | 0.00 | 83 | 1013.1 |
| 20260905075003 | 77 | 283 | 0.0 | 0.0 | 0.00 | 0.00 | 0.00 | 83 | 1013.2 |
| 20260905074507 | 77 | 283 | 0.0 | 0.0 | 0.00 | 0.00 | 0.00 | 83 | 1013.2 |
| 20260905074011 | 77 | 283 | 0.0 | 0.0 | 0.00 | 0.00 | 0.00 | 83 | 1013.2 |
| 20260905073506 | 77 | 283 | 0.0 | 0.0 | 0.00 | 0.00 | 0.00 | 82 | 1013.2 |
| 20260905073011 | 77 | 283 | 0.0 | 0.0 | 0.00 | 0.00 | 0.00 | 82 | 1013.3 |
| 20260905072505 | 77 | 283 | 0.0 | 0.0 | 0.00 | 0.00 | 0.00 | 82 | 1013.4 |
| 20260905072004 | 77 | 283 | 0.0 | 0.0 | 0.00 | 0.00 | 0.00 | 82 | 1013.4 |
| 20260905071510 | 77 | 283 | 0.0 | 0.0 | 0.00 | 0.00 | 0.00 | 82 | 1013.4 |
| 20260905071005 | 78 | 283 | 0.0 | 0.0 | 0.00 | 0.00 | 0.00 | 81 | 1013.3 |
| 20260905070507 | 78 | 283 | 0.0 | 0.0 | 0.00 | 0.00 | 0.00 | 80 | 1013.3 |
| 20260905070013 | 78 | 283 | 0.0 | 0.0 | 0.00 | 0.00 | 0.00 | 79 | 1013.3 |
| 20260905065508 | 79 | 283 | 0.0 | 0.0 | 0.00 | 0.00 | 0.00 | 79 | 1013.4 |
| 20260905065007 | 78 | 283 | 0.0 | 0.0 | 0.00 | 0.00 | 0.00 | 80 | 1013.4 |
| 20260905064516 | 78 | 283 | 0.0 | 0.0 | 0.00 | 0.00 | 0.00 | 80 | 1013.6 |
| 20260905064006 | 78 | 283 | 0.0 | 0.0 | 0.00 | 0.00 | 0.00 | 80 | 1013.6 |
| 20260905063503 | 78 | 283 | 0.0 | 0.0 | 0.00 | 0.00 | 0.00 | 80 | 1013.5 |
| 20260905063008 | 79 | 283 | 0.0 | 0.0 | 0.00 | 0.00 | 0.00 | 79 | 1013.4 |
| 20260905062511 | 79 | 283 | 0.0 | 0.0 | 0.00 | 0.00 | 0.00 | 80 | 1013.5 |
| 20260905062008 | 79 | 283 | 0.0 | 0.0 | 0.00 | 0.00 | 0.00 | 80 | 1013.4 |
| 20260905061512 | 79 | 283 | 0.0 | 0.0 | 0.00 | 0.00 | 0.00 | 79 | 1013.5 |
| 20260905061006 | 79 | 283 | 0.0 | 0.0 | 0.00 | 0.00 | 0.00 | 80 | 1013.4 |
| 20260905060506 | 79 | 283 | 0.0 | 0.0 | 0.00 | 0.00 | 0.00 | 80 | 1013.5 |
| 20260905060015 | 79 | 283 | 0.0 | 0.0 | 0.00 | 0.00 | 0.00 | 80 | 1013.5 |
| 20260905055507 | 79 | 283 | 0.0 | 0.0 | 0.00 | 0.00 | 0.00 | 80 | 1013.5 |
| 20260905055004 | 79 | 283 | 0.0 | 0.0 | 0.00 | 0.00 | 0.00 | 80 | 1013.5 |
| 20260905054511 | 79 | 283 | 0.0 | 0.0 | 0.00 | 0.00 | 0.00 | 79 | 1013.5 |
| 20260905054009 | 79 | 283 | 0.0 | 0.0 | 0.00 | 0.00 | 0.00 | 79 | 1013.4 |
| 20260905053507 | 80 | 283 | 0.0 | 0.0 | 0.00 | 0.00 | 0.00 | 79 | 1013.4 |
| 20260905053025 | 80 | 283 | 0.0 | 0.0 | 0.00 | 0.00 | 0.00 | 79 | 1013.3 |
| 20260905052510 | 80 | 283 | 0.0 | 0.0 | 0.00 | 0.00 | 0.00 | 79 | 1013.3 |
| 20260905052006 | 80 | 283 | 0.0 | 0.0 | 0.00 | 0.00 | 0.00 | 80 | 1013.2 |
| 20260905051514 | 80 | 283 | 0.0 | 0.0 | 0.00 | 0.00 | 0.00 | 80 | 1013.3 |
| 20260905051005 | 80 | 283 | 0.0 | 0.0 | 0.00 | 0.00 | 0.00 | 80 | 1013.3 |
| 20260905050509 | 80 | 283 | 0.0 | 0.0 | 0.00 | 0.00 | 0.00 | 79 | 1013.2 |
| 20260905050012 | 80 | 283 | 0.0 | 0.0 | 0.00 | 0.00 | 0.00 | 80 | 1013.2 |
| 20260905045508 | 80 | 283 | 0.0 | 0.0 | 0.00 | 0.00 | 0.00 | 79 | 1013.3 |
| 20260905045008 | 80 | 283 | 0.0 | 0.0 | 0.00 | 0.00 | 0.00 | 79 | 1013.3 |
| 20260905044513 | 81 | 283 | 0.0 | 0.0 | 0.00 | 0.00 | 0.00 | 79 | 1013.2 |
| 20260905044011 | 81 | 283 | 0.0 | 0.0 | 0.00 | 0.00 | 0.00 | 78 | 1013.0 |
| 20260905043510 | 81 | 283 | 0.0 | 0.0 | 0.00 | 0.00 | 0.00 | 78 | 1013.0 |
| 20260905043012 | 81 | 283 | 0.0 | 0.0 | 0.00 | 0.00 | 0.00 | 78 | 1013.0 |
| 20260905042510 | 81 | 283 | 0.0 | 0.0 | 0.00 | 0.00 | 0.00 | 77 | 1013.0 |
| 20260905042010 | 82 | 283 | 0.0 | 0.0 | 0.00 | 0.00 | 0.00 | 76 | 1012.9 |
| 20260905041516 | 82 | 283 | 0.0 | 0.0 | 0.00 | 0.00 | 0.00 | 76 | 1012.9 |
| 20260905041008 | 82 | 283 | 0.0 | 0.0 | 0.00 | 0.00 | 0.00 | 76 | 1012.9 |
| 20260905040508 | 82 | 283 | 0.0 | 0.0 | 0.00 | 0.00 | 0.00 | 76 | 1012.9 |
| 20260905040018 | 82 | 283 | 0.0 | 2.0 | 0.00 | 0.00 | 0.00 | 76 | 1012.9 |
| 20260905035511 | 82 | 283 | 0.0 | 2.0 | 0.00 | 0.00 | 0.00 | 76 | 1012.9 |
| 20260905035009 | 83 | 283 | 0.0 | 2.0 | 0.00 | 0.00 | 0.00 | 75 | 1012.9 |
| 20260905034512 | 83 | 283 | 0.0 | 0.0 | 0.00 | 0.00 | 0.00 | 75 | 1012.8 |
| 20260905034009 | 83 | 283 | 0.0 | 0.0 | 0.00 | 0.00 | 0.00 | 74 | 1012.8 |
| 20260905033508 | 83 | 284 | 0.0 | 0.0 | 0.00 | 0.00 | 0.00 | 74 | 1012.8 |
| 20260905033016 | 83 | 283 | 0.0 | 1.0 | 0.00 | 0.00 | 0.00 | 75 | 1012.7 |
| 20260905032510 | 83 | 283 | 0.0 | 2.0 | 0.00 | 0.00 | 0.00 | 74 | 1012.8 |
| 20260905032009 | 84 | 283 | 0.0 | 2.0 | 0.00 | 0.00 | 0.00 | 74 | 1012.7 |
| 20260905031519 | 84 | 283 | 0.0 | 2.0 | 0.00 | 0.00 | 0.00 | 73 | 1012.6 |
| 20260905031012 | 84 | 283 | 0.0 | 2.0 | 0.00 | 0.00 | 0.00 | 73 | 1012.6 |
| 20260905030514 | 84 | 275 | 0.0 | 2.0 | 0.00 | 0.00 | 0.00 | 73 | 1012.6 |
| 20260905030020 | 84 | 246 | 0.0 | 0.0 | 0.00 | 0.00 | 0.00 | 73 | 1012.5 |
| 20260905025511 | 84 | 246 | 0.0 | 0.0 | 0.00 | 0.00 | 0.00 | 73 | 1012.5 |
| 20260905025011 | 84 | 246 | 0.0 | 1.0 | 0.00 | 0.00 | 0.00 | 74 | 1012.5 |
| 20260905024528 | 85 | 246 | 0.0 | 1.0 | 0.00 | 0.00 | 0.00 | 73 | 1012.4 |
| 20260905024011 | 85 | 228 | 0.0 | 0.0 | 0.00 | 0.00 | 0.00 | 73 | 1012.5 |
| 20260905023508 | 85 | 228 | 0.0 | 0.0 | 0.00 | 0.00 | 0.00 | 73 | 1012.4 |
| 20260905023016 | 85 | 228 | 0.0 | 0.0 | 0.00 | 0.00 | 0.00 | 72 | 1012.4 |
| 20260905022511 | 85 | 228 | 0.0 | 0.0 | 0.00 | 0.00 | 0.00 | 72 | 1012.4 |
| 20260905022010 | 85 | 228 | 0.0 | 0.0 | 0.00 | 0.00 | 0.00 | 72 | 1012.4 |
| 20260905021515 | 85 | 228 | 0.0 | 0.0 | 0.00 | 0.00 | 0.00 | 71 | 1012.5 |
| 20260905021011 | 86 | 228 | 0.0 | 2.0 | 0.00 | 0.00 | 0.00 | 71 | 1012.4 |
| 20260905020515 | 86 | 228 | 0.0 | 2.0 | 0.00 | 0.00 | 0.00 | 72 | 1012.3 |
| 20260905020030 | 86 | 228 | 0.0 | 2.0 | 0.00 | 0.00 | 0.00 | 72 | 1012.3 |
| 20260905015511 | 86 | 228 | 0.0 | 0.0 | 0.00 | 0.00 | 0.00 | 71 | 1012.3 |
| 20260905015013 | 87 | 228 | 0.0 | 0.0 | 0.00 | 0.00 | 0.00 | 69 | 1012.2 |
| 20260905014516 | 87 | 228 | 0.0 | 0.0 | 0.00 | 0.00 | 0.00 | 69 | 1012.0 |
| 20260905014012 | 87 | 228 | 0.0 | 0.0 | 0.00 | 0.00 | 0.00 | 69 | 1011.8 |
| 20260905013511 | 87 | 228 | 0.0 | 0.0 | 0.00 | 0.00 | 0.00 | 69 | 1011.8 |
| 20260905013020 | 87 | 228 | 0.0 | 0.0 | 0.00 | 0.00 | 0.00 | 69 | 1011.7 |
| 20260905012510 | 87 | 228 | 0.0 | 0.0 | 0.00 | 0.00 | 0.00 | 69 | 1011.7 |
| 20260905012016 | 87 | 228 | 0.0 | 0.0 | 0.00 | 0.00 | 0.00 | 69 | 1011.7 |
| 20260905011521 | 87 | 228 | 0.0 | 0.0 | 0.00 | 0.00 | 0.00 | 69 | 1011.6 |
| 20260905011013 | 87 | 228 | 0.0 | 0.0 | 0.00 | 0.00 | 0.00 | 69 | 1011.6 |
| 20260905010512 | 87 | 228 | 0.0 | 0.0 | 0.00 | 0.00 | 0.00 | 69 | 1011.6 |
| 20260905010019 | 87 | 228 | 0.0 | 0.0 | 0.00 | 0.00 | 0.00 | 69 | 1011.5 |
| 20260905005512 | 87 | 228 | 0.0 | 0.0 | 0.00 | 0.00 | 0.00 | 69 | 1011.5 |
| 20260905005020 | 87 | 228 | 0.0 | 0.0 | 0.00 | 0.00 | 0.00 | 69 | 1011.5 |
| 20260905004520 | 87 | 228 | 0.0 | 0.0 | 0.00 | 0.00 | 0.00 | 69 | 1011.5 |
| 20260905004011 | 88 | 228 | 0.0 | 0.0 | 0.00 | 0.00 | 0.00 | 69 | 1011.6 |
| 20260905003510 | 88 | 228 | 0.0 | 0.0 | 0.00 | 0.00 | 0.00 | 68 | 1011.5 |
| 20260905003019 | 88 | 228 | 0.0 | 0.0 | 0.00 | 0.00 | 0.00 | 69 | 1011.5 |
| 20260905002510 | 88 | 228 | 0.0 | 0.0 | 0.00 | 0.00 | 0.00 | 69 | 1011.4 |
| 20260905002017 | 89 | 228 | 0.0 | 2.0 | 0.00 | 0.00 | 0.00 | 67 | 1011.4 |
| 20260905001521 | 89 | 228 | 0.0 | 2.0 | 0.00 | 0.00 | 0.00 | 64 | 1011.4 |
| 20260905001013 | 90 | 228 | 0.0 | 2.0 | 0.00 | 0.00 | 0.00 | 65 | 1011.4 |
| 20260905000513 | 90 | 224 | 0.0 | 5.0 | 0.00 | 0.00 | 0.00 | 66 | 1011.5 |
| 20260905000024 | 90 | 196 | 1.0 | 5.0 | 0.00 | 0.00 | 0.00 | 64 | 1011.4 |
| 20260904235511 | 90 | 319 | 0.0 | 2.0 | 0.00 | 0.00 | 0.00 | 66 | 1011.5 |
| 20260904235017 | 90 | 319 | 0.0 | 1.0 | 0.00 | 0.00 | 0.00 | 66 | 1011.5 |
| 20260904234525 | 89 | 323 | 0.0 | 2.0 | 0.00 | 0.00 | 0.00 | 67 | 1011.5 |
| 20260904234013 | 89 | 323 | 0.0 | 2.0 | 0.00 | 0.00 | 0.00 | 67 | 1011.4 |
| 20260904233513 | 89 | 323 | 0.0 | 2.0 | 0.00 | 0.00 | 0.00 | 63 | 1011.5 |
| 20260904233023 | 90 | 323 | 0.0 | 2.0 | 0.00 | 0.00 | 0.00 | 63 | 1011.6 |
| 20260904232512 | 91 | 323 | 0.0 | 2.0 | 0.00 | 0.00 | 0.00 | 63 | 1011.6 |
| 20260904232017 | 91 | 133 | 0.0 | 2.0 | 0.00 | 0.00 | 0.00 | 61 | 1011.6 |
| 20260904231526 | 92 | 138 | 0.0 | 2.0 | 0.00 | 0.00 | 0.00 | 61 | 1011.6 |
| 20260904231014 | 93 | 138 | 0.0 | 3.0 | 0.00 | 0.00 | 0.00 | 60 | 1011.6 |
| 20260904230517 | 94 | 146 | 1.0 | 3.0 | 0.00 | 0.00 | 0.00 | 57 | 1011.7 |
| 20260904230026 | 93 | 243 | 1.0 | 3.0 | 0.00 | 0.00 | 0.00 | 58 | 1011.7 |
| 20260904225515 | 93 | 265 | 1.0 | 3.0 | 0.00 | 0.00 | 0.00 | 56 | 1011.7 |
| 20260904225020 | 93 | 267 | 1.0 | 3.0 | 0.00 | 0.00 | 0.00 | 57 | 1011.7 |
| 20260904224527 | 93 | 265 | 0.0 | 2.0 | 0.00 | 0.00 | 0.00 | 55 | 1011.6 |
| 20260904224014 | 93 | 291 | 0.0 | 2.0 | 0.00 | 0.00 | 0.00 | 61 | 1011.6 |
| 20260904223514 | 92 | 284 | 0.0 | 2.0 | 0.00 | 0.00 | 0.00 | 59 | 1011.6 |